DW7229 Weather Reports


time (UTC)temp
C
wind
direction
speed
KPH
gust
KPH
rain 1hr
cm
rain 24hr
cm
rain mn
cm
humidity
%
barometer
mb
20260510194015 25 163 1.6 12.9 0.00 0.00 0.00 44 1010.1
20260510193018 23 0.0 0.0 0.00 0.00 0.00 46 1010.2
20260510192022 22 222 6.4 12.9 0.00 0.00 0.00 48 1010.1
20260510191025 24 173 4.8 12.9 0.00 0.00 0.00 46 1010.2
20260510190028 23 201 1.6 9.7 0.00 0.00 0.00 47 1010.2
20260510185026 24 232 3.2 12.9 0.00 0.00 0.00 48 1010.3
20260510184017 23 169 0.0 4.8 0.00 0.00 0.00 50 1010.5
20260510183020 23 165 6.4 11.3 0.00 0.00 0.00 49 1010.7
20260510182038 22 242 4.8 8.0 0.00 0.00 0.00 51 1010.8
20260510181015 23 222 3.2 9.7 0.00 0.00 0.00 51 1010.9
20260510180030 22 198 3.2 8.0 0.00 0.00 0.00 52 1011.1
20260510175016 22 188 3.2 16.1 0.00 0.00 0.00 52 1011.2
20260510174019 21 0.0 0.0 0.00 0.00 0.00 55 1011.3
20260510173022 21 187 0.0 3.2 0.00 0.00 0.00 55 1011.4
20260510172025 21 259 1.6 6.4 0.00 0.00 0.00 56 1011.4
20260510171029 21 230 4.8 9.7 0.00 0.00 0.00 56 1011.5
20260510170032 21 220 3.2 6.4 0.00 0.00 0.00 55 1011.7
20260510165017 20 258 4.8 11.3 0.00 0.00 0.00 59 1011.6
20260510164020 20 292 3.2 6.4 0.00 0.00 0.00 61 1011.6
20260510163024 20 311 3.2 8.0 0.00 0.00 0.00 58 1011.8
20260510162027 20 225 4.8 11.3 0.00 0.00 0.00 58 1011.7
20260510161030 20 228 1.6 8.0 0.00 0.00 0.00 58 1011.8
20260510160015 19 178 3.2 11.3 0.00 0.00 0.00 60 1011.9
20260510155019 20 143 1.6 6.4 0.00 0.00 0.00 60 1011.9
20260510154022 19 135 1.6 6.4 0.00 0.00 0.00 60 1011.9
20260510153105 19 100 1.6 6.4 0.00 0.00 0.00 62 1011.8
20260510152109 18 241 1.6 6.4 0.00 0.00 0.00 63 1012.0
20260510151026 18 261 1.6 4.8 0.00 0.00 0.00 63 1012.2
20260510150017 17 0.0 0.0 0.00 0.00 0.00 65 1012.1
20260510145020 18 126 0.0 3.2 0.00 0.00 0.00 64 1012.2
20260510144018 17 150 1.6 6.4 0.00 0.00 0.00 66 1012.2
20260510143015 16 182 1.6 6.4 0.00 0.00 0.00 68 1012.2
20260510142030 15 249 1.6 6.4 0.00 0.00 0.00 70 1012.4
20260510141015 15 277 3.2 6.4 0.00 0.00 0.00 73 1012.5
20260510140019 14 23 1.6 4.8 0.00 0.00 0.00 75 1012.5
20260510135022 13 265 3.2 9.7 0.00 0.00 0.00 76 1012.5
20260510134026 13 245 3.2 8.0 0.00 0.00 0.00 78 1012.5
20260510133029 13 270 0.0 4.8 0.00 0.00 0.00 79 1012.4
20260510132032 13 225 0.0 4.8 0.00 0.00 0.00 80 1012.4
20260510131017 12 270 3.2 8.0 0.00 0.00 0.00 80 1012.4
20260510130020 12 222 3.2 8.0 0.00 0.00 0.00 82 1012.3
20260510125024 12 203 1.6 6.4 0.00 0.00 0.00 83 1012.4
20260510124027 12 0.0 0.0 0.00 0.00 0.00 84 1012.3
20260510123050 12 0.0 0.0 0.00 0.00 0.00 84 1012.3
20260510122056 12 0.0 1.6 0.00 0.00 0.00 85 1012.3
20260510121019 12 203 0.0 4.8 0.00 0.00 0.00 86 1012.0
20260510120022 11 0.0 0.0 0.00 0.00 0.00 88 1012.0
20260510115026 11 248 0.0 3.2 0.00 0.00 0.00 90 1012.3
20260510114029 11 0.0 0.0 0.00 0.00 0.00 95 1012.4
20260510113026 11 0.0 0.0 0.00 0.00 0.00 95 1012.3
20260510112017 11 0.0 0.0 0.00 0.00 0.00 95 1011.8
20260510111041 11 0.0 0.0 0.00 0.00 0.00 95 1011.8
20260510110018 11 0.0 0.0 0.00 0.00 0.00 95 1011.6
20260510105015 10 0.0 0.0 0.00 0.00 0.00 95 1011.6
20260510104031 10 0.0 0.0 0.00 0.00 0.00 95 1011.5
20260510103016 10 0.0 0.0 0.00 0.00 0.00 95 1011.5
20260510102019 10 0.0 0.0 0.00 0.00 0.00 95 1011.7
20260510101023 10 0.0 0.0 0.00 0.00 0.00 95 1011.7
20260510100026 10 0.0 0.0 0.00 0.00 0.00 95 1011.6
20260510095029 10 225 0.0 4.8 0.00 0.00 0.00 95 1011.6
20260510094033 10 195 0.0 3.2 0.00 0.00 0.00 95 1011.5
20260510093018 10 0.0 0.0 0.00 0.00 0.00 95 1011.4
20260510092021 10 0.0 0.0 0.00 0.00 0.00 94 1011.3
20260510091025 9 0.0 0.0 0.00 0.00 0.00 93 1011.4
20260510090048 9 0.0 0.0 0.00 0.00 0.00 92 1011.2
20260510085051 9 0.0 0.0 0.00 0.00 0.00 91 1011.3
20260510084016 8 0.0 0.0 0.00 0.00 0.00 90 1011.3
20260510083020 8 0.0 0.0 0.00 0.00 0.00 89 1011.2
20260510082023 8 0.0 0.0 0.00 0.00 0.00 89 1011.2
20260510081106 8 0.0 0.0 0.00 0.00 0.00 89 1011.2
20260510080030 8 0.0 0.0 0.00 0.00 0.00 89 1011.1
20260510075015 8 0.0 0.0 0.00 0.00 0.00 88 1011.0
20260510074038 8 0.0 0.0 0.00 0.00 0.00 88 1010.9
20260510073041 8 0.0 0.0 0.00 0.00 0.00 88 1010.7
20260510072019 8 0.0 0.0 0.00 0.00 0.00 88 1010.8
20260510071016 8 0.0 0.0 0.00 0.00 0.00 88 1011.0
20260510070032 8 0.0 0.0 0.00 0.00 0.00 88 1010.8
20260510065017 8 0.0 0.0 0.00 0.00 0.00 88 1010.9
20260510064020 8 0.0 0.0 0.00 0.00 0.00 88 1010.9
20260510063024 8 0.0 0.0 0.00 0.00 0.00 88 1010.9
20260510062027 8 0.0 0.0 0.00 0.00 0.00 88 1010.7
20260510061030 8 0.0 0.0 0.00 0.00 0.00 88 1011.0
20260510060015 8 0.0 0.0 0.00 0.00 0.00 88 1011.3
20260510055018 8 0.0 0.0 0.00 0.00 0.00 88 1011.4
20260510054042 8 0.0 0.0 0.00 0.00 0.00 87 1011.5
20260510053045 8 0.0 0.0 0.00 0.00 0.00 87 1011.5
20260510052028 8 0.0 0.0 0.00 0.00 0.00 87 1011.5
20260510051031 8 0.0 0.0 0.00 0.00 0.00 87 1011.6
20260510050017 8 0.0 0.0 0.00 0.00 0.00 87 1011.5
20260510045020 8 0.0 0.0 0.00 0.00 0.00 87 1011.5
20260510044023 8 0.0 0.0 0.00 0.00 0.00 87 1011.5
20260510043027 8 0.0 0.0 0.00 0.00 0.00 87 1011.5
20260510042050 8 0.0 0.0 0.00 0.00 0.00 87 1011.3
20260510041015 8 0.0 0.0 0.00 0.00 0.00 86 1011.9
20260510040019 8 0.0 0.0 0.00 0.00 0.00 86 1011.8
20260510035022 8 0.0 0.0 0.00 0.00 0.00 85 1011.9
20260510034019 8 0.0 0.0 0.00 0.00 0.00 85 1011.9
20260510033016 8 0.0 0.0 0.00 0.00 0.00 85 1012.0
20260510032032 8 0.0 0.0 0.00 0.00 0.00 85 1012.3
20260510031017 8 0.0 0.0 0.00 0.00 0.00 85 1012.4
20260510030020 8 0.0 0.0 0.00 0.00 0.00 85 1012.4
20260510025023 8 0.0 0.0 0.00 0.00 0.00 85 1012.4
20260510024027 8 0.0 0.0 0.00 0.00 0.00 85 1012.4
20260510023030 8 0.0 0.0 0.00 0.00 0.00 85 1012.5
20260510022015 8 0.0 0.0 0.00 0.00 0.00 84 1012.6
20260510021039 8 0.0 0.0 0.00 0.00 0.00 83 1012.8
20260510020022 8 0.0 0.0 0.00 0.00 0.00 83 1012.6
20260510015025 8 0.0 0.0 0.00 0.00 0.00 83 1012.6
20260510014049 8 0.0 0.0 0.00 0.00 0.00 83 1012.6
20260510013052 8 0.0 0.0 0.00 0.00 0.00 83 1012.6
20260510012057 8 0.0 0.0 0.00 0.00 0.00 83 1012.5
20260510011020 8 0.0 0.0 0.00 0.00 0.00 82 1012.4
20260510010024 8 0.0 0.0 0.00 0.00 0.00 82 1012.4
20260510005026 8 0.0 0.0 0.00 0.00 0.00 82 1012.6
20260510004030 8 0.0 0.0 0.00 0.00 0.00 82 1012.6
20260510003035 8 0.0 0.0 0.00 0.00 0.00 82 1012.5
20260510002019 8 0.0 0.0 0.00 0.00 0.00 82 1012.4
20260510001021 8 0.0 0.0 0.00 0.00 0.00 82 1012.4
20260510000039 8 0.0 0.0 0.00 0.00 0.00 82 1012.5
20260509235016 8 0.0 0.0 0.00 0.00 0.00 82 1012.4
20260509234052 8 0.0 0.0 0.00 0.00 0.00 81 1012.3
20260509233017 8 0.0 0.0 0.00 0.00 0.00 81 1012.2
20260509232020 8 0.0 0.0 0.00 0.00 0.00 81 1012.1
20260509231023 8 0.0 0.0 0.00 0.00 0.00 81 1011.9
20260509230027 8 0.0 0.0 0.00 0.00 0.00 81 1012.1
20260509225030 8 0.0 0.0 0.00 0.00 0.00 81 1012.3
20260509224015 8 0.0 0.0 0.00 0.00 0.00 81 1012.4
20260509223018 8 0.0 0.0 0.00 0.00 0.00 80 1012.4
20260509222022 8 0.0 0.0 0.00 0.00 0.00 80 1012.6
20260509221025 8 0.0 0.0 0.00 0.00 0.00 80 1012.6
20260509220028 8 0.0 0.0 0.00 0.00 0.00 80 1012.5
20260509215032 8 0.0 0.0 0.00 0.00 0.00 80 1012.6
20260509214057 8 0.0 0.0 0.00 0.00 0.00 80 1012.7
20260509213020 8 0.0 0.0 0.00 0.00 0.00 80 1012.8
20260509212023 8 0.0 0.0 0.00 0.00 0.00 80 1012.6
20260509211027 8 0.0 0.0 0.00 0.00 0.00 80 1012.6
20260509210030 8 0.0 0.0 0.00 0.00 0.00 80 1012.6
20260509205035 9 0.0 0.0 0.00 0.00 0.00 80 1012.8
20260509204018 9 0.0 0.0 0.00 0.00 0.00 80 1012.9
20260509203042 9 0.0 0.0 0.00 0.00 0.00 80 1013.0
20260509202019 9 0.0 0.0 0.00 0.00 0.00 80 1013.2
20260509201016 10 0.0 0.0 0.00 0.00 0.00 80 1013.0
20260509200032 10 0.0 0.0 0.00 0.00 0.00 80 1012.5
20260509195037 10 0.0 0.0 0.00 0.00 0.00 81 1012.2